Date/Time,Electricity:Facility [kW](Hourly),Fans:Electricity [kW](Hourly),Cooling:Electricity [kW](Hourly),Heating:Electricity [kW](Hourly),InteriorLights:Electricity [kW](Hourly),InteriorEquipment:Electricity [kW](Hourly),Gas:Facility [kW](Hourly),Heating:Gas [kW](Hourly),InteriorEquipment:Gas [kW](Hourly),Water Heater:WaterSystems:Gas [kW](Hourly)
 01/01  01:00:00,117.869035363,0.0,0.0,0.0,43.513341876,52.539744,4.85426,0.0,4.83426,0.02
 01/01  02:00:00,117.877635879,0.0,0.0,0.0,43.513341876,52.539744,4.85426,0.0,4.83426,0.02
 01/01  03:00:00,117.883845199,0.0,0.0,0.0,43.513341876,52.539744,4.85426,0.0,4.83426,0.02
 01/01  04:00:00,117.883472256,0.0,0.0,0.0,43.513341876,52.539744,4.85426,0.0,4.83426,0.02
 01/01  05:00:00,118.368280257,0.0,0.0,0.0,43.513341876,52.539744,4.85426,0.0,4.83426,0.02
 01/01  06:00:00,118.325111059,0.0,0.0,0.0,43.513341876,52.539744,4.85426,0.0,4.83426,0.02
 01/01  07:00:00,118.334372552,0.0,0.0,0.0,43.513341876,52.539744,13.4444564546,0.0,4.83426,8.61019645459
 01/01  08:00:00,112.199024422,0.0,0.0,0.0,43.513341876,52.539744,4.85426,0.0,4.83426,0.02
 01/01  09:00:00,100.251818934,0.0,0.0,0.0,43.513341876,52.539744,4.85426,0.0,4.83426,0.02
 01/01  10:00:00,100.30776512,0.0,0.0,0.0,43.513341876,52.539744,4.85426,0.0,4.83426,0.02
 01/01  11:00:00,100.323357461,0.0,0.0,0.0,43.513341876,52.539744,4.85426,0.0,4.83426,0.02
 01/01  12:00:00,101.15749197,0.0,0.0,0.0,43.513341876,52.539744,13.4502362873,0.0,4.83426,8.61597628728
 01/01  13:00:00,100.338430365,0.0,0.0,0.0,43.513341876,52.539744,4.85426,0.0,4.83426,0.02
 01/01  14:00:00,100.406628681,0.0,0.0,0.0,43.513341876,52.539744,4.85426,0.0,4.83426,0.02
 01/01  15:00:00,100.434659489,0.0,0.0,0.0,43.513341876,52.539744,4.85426,0.0,4.83426,0.02
 01/01  16:00:00,100.424905226,0.0,0.0,0.0,43.513341876,52.539744,13.4443817637,0.0,4.83426,8.61012176374
 01/01  17:00:00,100.230010207,0.0,0.0,0.0,43.513341876,52.539744,4.85426,0.0,4.83426,0.02
 01/01  18:00:00,103.195803984,0.0,0.0,0.0,43.513341876,52.539744,4.85426,0.0,4.83426,0.02
 01/01  19:00:00,118.074181647,0.0,0.0,0.0,43.513341876,52.539744,4.85426,0.0,4.83426,0.02
 01/01  20:00:00,118.513366129,0.0,0.0,0.0,43.513341876,52.539744,4.85426,0.0,4.83426,0.02
 01/01  21:00:00,118.442187152,0.0,0.0,0.0,43.513341876,52.539744,4.85426,0.0,4.83426,0.02
 01/01  22:00:00,118.17078146,0.0,0.0,0.0,43.513341876,52.539744,4.85426,0.0,4.83426,0.02
 01/01  23:00:00,117.843844055,0.0,0.0,0.0,43.513341876,52.539744,13.4444909257,0.0,4.83426,8.61023092572
 01/01  24:00:00,118.718953583,0.0,0.0,0.0,43.513341876,52.539744,4.85426,0.0,4.83426,0.02
 01/02  01:00:00,117.859807611,0.0,0.0,0.0,43.513341876,52.539744,4.85426,0.0,4.83426,0.02
 01/02  02:00:00,117.851990034,0.0,0.0,0.0,43.513341876,52.539744,4.85426,0.0,4.83426,0.02
 01/02  03:00:00,117.85098141,0.0,0.0,0.0,43.513341876,52.539744,4.85426,0.0,4.83426,0.02
 01/02  04:00:00,117.850285503,0.0,0.0,0.0,43.513341876,52.539744,13.4502921392,0.0,4.83426,8.61603213923
 01/02  05:00:00,118.324449382,0.0,0.0,0.0,43.513341876,52.539744,4.85426,0.0,4.83426,0.02
 01/02  06:00:00,118.203186932,0.0,0.0,0.0,43.513341876,52.539744,4.85426,0.0,4.83426,0.02
 01/02  07:00:00,192.466590249,73.4588579576,0.0,0.0,43.513341876,53.238744,568.710274403,563.856014403,4.83426,0.02
 01/02  08:00:00,364.108566813,73.4588579576,0.0,0.0,220.879908,53.238744,538.77456428,507.709282856,4.83426,26.231021424
 01/02  09:00:00,444.556876994,73.4588579576,0.00277808584693,0.0,220.879908,145.652643033,419.348263964,356.706324043,36.25695,26.3849899215
 01/02  10:00:00,445.831536371,73.4588579576,0.977886424094,0.0,220.879908,145.652643033,325.210068133,262.324667331,36.25695,26.6284508022
 01/02  11:00:00,479.725907567,73.4588579576,27.9863271277,0.0,220.879908,151.653867033,277.697321594,193.817799479,48.3426,35.5369221146
 01/02  12:00:00,636.693410795,73.4588579576,182.030569234,0.0,220.879908,151.653867033,147.2947674,54.3920233153,48.3426,44.5601440844
 01/02  13:00:00,901.955832543,73.6120129265,445.204518527,0.0,220.879908,151.653867033,93.0136390628,0.0,48.3426,44.6710390628
 01/02  14:00:00,1000.0489754,74.9037897324,545.99115786,0.0,220.879908,145.652643033,59.9691756624,0.0138582285076,24.1713,35.7840174339
 01/02  15:00:00,1045.3605966,76.7691499193,589.145001256,0.0,220.879908,145.652643033,59.6793820883,0.0,24.1713,35.5080820883
 01/02  16:00:00,1065.64287301,75.9872488507,618.201456438,0.0,220.879908,137.835547516,40.3935502026,0.0,4.83426,35.5592902026
 01/02  17:00:00,1091.78600291,73.8441477706,652.158061593,0.0,220.879908,133.019064,40.161024389,0.0114195587397,4.83426,35.3153448303
 01/02  18:00:00,734.339900804,73.4746497349,374.635038845,0.0,220.879908,53.238744,45.6668434617,14.3369779252,4.83426,26.4956055366
 01/02  19:00:00,780.034259749,73.4588579576,404.853070685,0.0,220.879908,53.238744,50.3277002267,10.0629914991,4.83426,35.4304487276
 01/02  20:00:00,936.557233114,73.4588579576,559.420943796,0.0,220.879908,53.238744,13.5213504512,0.0124068335703,4.83426,8.67468361767
 01/02  21:00:00,877.306815176,73.4588579576,500.811186754,0.0,220.879908,53.238744,13.7333352352,0.233275188774,4.83426,8.66580004642
 01/02  22:00:00,118.461291391,0.0,0.0,0.0,43.513341876,52.539744,13.5008164292,0.0,4.83426,8.6665564292
 01/02  23:00:00,118.134338412,0.0,0.0,0.0,43.513341876,52.539744,4.85426,0.0,4.83426,0.02
 01/02  24:00:00,119.009594976,0.0,0.0,0.0,43.513341876,52.539744,13.4619978745,0.0,4.83426,8.62773787449
 01/03  01:00:00,118.128206786,0.0,0.0,0.0,43.513341876,52.539744,4.85426,0.0,4.83426,0.02
 01/03  02:00:00,118.110435522,0.0,0.0,0.0,43.513341876,52.539744,4.85426,0.0,4.83426,0.02
 01/03  03:00:00,118.097590705,0.0,0.0,0.0,43.513341876,52.539744,4.85426,0.0,4.83426,0.02
 01/03  04:00:00,118.084147709,0.0,0.0,0.0,43.513341876,52.539744,13.4503888373,0.0,4.83426,8.61612883735
 01/03  05:00:00,120.611939007,0.0,0.0,0.0,43.513341876,52.539744,4.85426,0.0,4.83426,0.02
 01/03  06:00:00,120.239826144,0.0,0.0,0.0,43.513341876,52.539744,4.85426,0.0,4.83426,0.02
 01/03  07:00:00,724.481515627,73.4588579576,523.680290865,0.0,43.513341876,53.238744,13.112253374,8.25799337399,4.83426,0.02
 01/03  08:00:00,894.252833923,73.4588579576,522.66286211,0.0,220.879908,53.238744,35.9301126889,4.86520311386,4.83426,26.2306495751
 01/03  09:00:00,974.67692137,73.5754555899,522.406237122,0.0,220.879908,145.652643033,56.8706665427,0.0,36.25695,20.6137165427
 01/03  10:00:00,974.215400091,74.1511058568,521.093902055,0.0,220.879908,145.652643033,68.7124692413,0.0,36.25695,32.4555192413
 01/03  11:00:00,981.423156411,74.6237875083,521.754903561,0.0,220.879908,151.653867033,83.8809608034,0.0,48.3426,35.5383608034
 01/03  12:00:00,992.676420337,75.0788308817,531.507885488,0.0,220.879908,151.653867033,92.9012106418,0.0,48.3426,44.5586106418
 01/03  13:00:00,1017.78816938,76.0520556374,555.874356379,0.0,220.879908,151.653867033,93.0064977607,0.0,48.3426,44.6638977607
 01/03  14:00:00,1018.42379251,76.6173254788,561.620412164,0.0,220.879908,145.652643033,59.9674267879,0.00975882187977,24.1713,35.7863679661
 01/03  15:00:00,1037.86813921,77.1242559076,580.642682258,0.0,220.879908,145.652643033,59.6815413735,0.0,24.1713,35.5102413735
 01/03  16:00:00,1041.39410903,77.6135480349,591.674359535,0.0,220.879908,137.835547516,40.3962285914,0.0,4.83426,35.5619685914
 01/03  17:00:00,1070.48968563,75.2141885514,628.473300976,0.0,220.879908,133.019064,40.1625234689,0.0106577477001,4.83426,35.3176057212
 01/03  18:00:00,983.096793709,73.7802512396,619.57858949,0.0,220.879908,53.238744,31.327380249,0.0,4.83426,26.493120249
 01/03  19:00:00,993.001552366,73.6316632966,614.6618037,0.0,220.879908,53.238744,40.2606923568,0.0,4.83426,35.4264323568
 01/03  20:00:00,974.414532396,73.5813809906,596.298772417,0.0,220.879908,53.238744,13.5093334848,0.0,4.83426,8.67507348481
 01/03  21:00:00,954.183392764,73.5464167745,576.724249058,0.0,220.879908,53.238744,13.5004334214,0.0,4.83426,8.66617342144
 01/03  22:00:00,118.153831298,0.0,0.0,0.0,43.513341876,52.539744,13.4991767212,0.0,4.83426,8.66491672118
 01/03  23:00:00,118.180107234,0.0,0.0,0.0,43.513341876,52.539744,4.85426,0.0,4.83426,0.02
 01/03  24:00:00,119.066400632,0.0,0.0,0.0,43.513341876,52.539744,13.4623288358,0.0,4.83426,8.62806883581
 01/04  01:00:00,118.191959043,0.0,0.0,0.0,43.513341876,52.539744,4.85426,0.0,4.83426,0.02
 01/04  02:00:00,118.183335687,0.0,0.0,0.0,43.513341876,52.539744,4.85426,0.0,4.83426,0.02
 01/04  03:00:00,118.15534274,0.0,0.0,0.0,43.513341876,52.539744,4.85426,0.0,4.83426,0.02
 01/04  04:00:00,118.126277041,0.0,0.0,0.0,43.513341876,52.539744,13.4504325658,0.0,4.83426,8.61617256577
 01/04  05:00:00,118.638470529,0.0,0.0,0.0,43.513341876,52.539744,4.85426,0.0,4.83426,0.02
 01/04  06:00:00,118.607352963,0.0,0.0,0.0,43.513341876,52.539744,4.85426,0.0,4.83426,0.02
 01/04  07:00:00,720.389456773,73.4646103402,519.832021854,0.0,43.513341876,53.238744,9.38762299169,4.53336299169,4.83426,0.02
 01/04  08:00:00,892.353985595,73.4588579576,520.062514969,0.0,220.879908,53.238744,32.7779417114,1.71064533218,4.83426,26.2330363792
 01/04  09:00:00,970.27813397,74.2239617132,516.460446175,0.0,220.879908,145.652643033,62.644466792,0.0,36.25695,26.387516792
 01/04  10:00:00,966.479457482,75.1118459296,511.354766396,0.0,220.879908,145.652643033,62.9111822275,0.0,36.25695,26.6542322275
 01/04  11:00:00,974.670210411,75.8416729495,512.560475852,0.0,220.879908,151.653867033,92.7302826262,0.0,48.3426,44.3876826262
 01/04  12:00:00,997.733891699,76.6579793864,533.900758486,0.0,220.879908,151.653867033,83.9953963031,0.0,48.3426,35.6527963031
 01/04  13:00:00,1016.86221969,77.4407774255,552.816745409,0.0,220.879908,151.653867033,93.0071708863,0.0,48.3426,44.6645708863
 01/04  14:00:00,1032.5930984,77.8918796075,576.796610622,0.0,220.879908,145.652643033,59.9723203096,0.0100120253357,24.1713,35.7910082843
 01/04  15:00:00,1012.95131088,77.8084640223,559.300146006,0.0,220.879908,145.652643033,59.6861425765,0.0,24.1713,35.5148425765
 01/04  16:00:00,1040.72191827,78.2018465593,594.068486867,0.0,220.879908,137.835547516,49.2825622823,0.0,4.83426,44.4483022823
 01/04  17:00:00,990.978148085,75.6923222435,552.795190736,0.0,220.879908,133.019064,31.3406842293,0.0114202471683,4.83426,26.4950039821
 01/04  18:00:00,697.482430435,73.8168662571,338.930471055,0.0,220.879908,53.238744,31.3334739242,0.00677673309681,4.83426,26.4924371911
 01/04  19:00:00,573.645885644,73.5783523559,201.328698232,0.0,220.879908,53.238744,41.2309916369,0.965316214583,4.83426,35.4314154223
 01/04  20:00:00,494.092943755,73.4906849971,122.209674907,0.0,220.879908,53.238744,42.2330570088,28.7228361129,4.83426,8.67596089591
 01/04  21:00:00,443.767483973,73.4591419751,72.5497895457,0.0,220.879908,53.238744,81.2415955564,67.7413696832,4.83426,8.6659658732
 01/04  22:00:00,118.07255383,0.0,0.0,0.0,43.513341876,52.539744,13.5010009936,0.0,4.83426,8.66674099364
 01/04  23:00:00,117.797801921,0.0,0.0,0.0,43.513341876,52.539744,4.85426,0.0,4.83426,0.02
 01/04  24:00:00,118.73863873,0.0,0.0,0.0,43.513341876,52.539744,13.4622467839,0.0,4.83426,8.62798678386
 01/05  01:00:00,117.804511475,0.0,0.0,0.0,43.513341876,52.539744,4.85426,0.0,4.83426,0.02
 01/05  02:00:00,117.795471662,0.0,0.0,0.0,43.513341876,52.539744,4.85426,0.0,4.83426,0.02
 01/05  03:00:00,117.786647769,0.0,0.0,0.0,43.513341876,52.539744,13.4504507376,0.0,4.83426,8.61619073756
 01/05  04:00:00,117.760970231,0.0,0.0,0.0,43.513341876,52.539744,4.85426,0.0,4.83426,0.02
 01/05  05:00:00,118.172378897,0.0,0.0,0.0,43.513341876,52.539744,4.85426,0.0,4.83426,0.02
 01/05  06:00:00,118.142410862,0.0,0.0,0.0,43.513341876,52.539744,4.85426,0.0,4.83426,0.02
 01/05  07:00:00,192.826332538,73.4588579576,0.0015925266668,0.0,43.513341876,53.238744,1047.17395619,1033.7234593,4.83426,8.61623688736
 01/05  08:00:00,364.812896654,73.4588579576,0.0,0.0,220.879908,53.238744,935.234833578,912.90396779,4.83426,17.4966057878
 01/05  09:00:00,445.418161747,73.4588579576,0.00137655757436,0.0,220.879908,145.652643033,765.951604631,703.304497968,36.25695,26.3901566626
 01/05  10:00:00,445.161384585,73.4588579576,0.00168545734667,0.0,220.879908,145.652643033,690.964188599,619.206374078,36.25695,35.5008645218
 01/05  11:00:00,450.875366704,73.4588579576,0.00127243990493,0.0,220.879908,151.653867033,648.854897975,564.973527735,48.3426,35.5387702394
 01/05  12:00:00,451.619046099,73.4676500981,0.0,0.0,220.879908,151.653867033,539.318217514,455.321278847,48.3426,35.6543386672
 01/05  13:00:00,450.618040149,73.5307270463,0.0,0.0,220.879908,151.653867033,455.891412757,362.877493995,48.3426,44.6713187622
 01/05  14:00:00,444.931161806,73.8486098364,0.0,0.0,220.879908,145.652643033,355.513192555,286.605745886,24.1713,44.7361466688
 01/05  15:00:00,489.245779388,74.8482249371,42.7047926457,0.0,220.879908,145.652643033,221.604216256,161.918252193,24.1713,35.5146640631
 01/05  16:00:00,516.489971887,75.1726731522,77.0616350813,0.0,220.879908,137.835547516,127.187148064,86.7887360746,4.83426,35.5641519899
 01/05  17:00:00,508.412318703,73.5734665989,75.6599013952,0.0,220.879908,133.019064,55.7870136351,24.4582694254,4.83426,26.4944842097
 01/05  18:00:00,427.570021382,73.4588579576,71.7424284889,0.0,220.879908,53.238744,91.5770891761,60.2484896704,4.83426,26.4943395057
 01/05  19:00:00,420.374091594,73.4588579576,49.8874344095,0.0,220.879908,53.238744,122.007797488,81.7435703185,4.83426,35.4299671696
 01/05  20:00:00,395.51181161,73.4588579576,24.9487754786,0.0,220.879908,53.238744,116.860702748,103.351555264,4.83426,8.67488748375
 01/05  21:00:00,376.653146384,73.4588579576,6.41438135247,0.0,220.879908,53.238744,156.502737179,143.002177074,4.83426,8.66630010464
 01/05  22:00:00,117.96608121,0.0,0.0,0.0,43.513341876,52.539744,13.4989868038,0.0,4.83426,8.66472680377
 01/05  23:00:00,117.724132012,0.0,0.0,0.0,43.513341876,52.539744,13.4713817056,0.0,4.83426,8.63712170559
 01/05  24:00:00,118.694800854,0.0,0.0,0.0,43.513341876,52.539744,4.85426,0.0,4.83426,0.02
 01/06  01:00:00,117.749723722,0.0,0.0,0.0,43.513341876,52.539744,4.85426,0.0,4.83426,0.02
 01/06  02:00:00,117.75256226,0.0,0.0,0.0,43.513341876,52.539744,13.4504709253,0.0,4.83426,8.61621092525
 01/06  03:00:00,117.732094993,0.0,0.0,0.0,43.513341876,52.539744,4.85426,0.0,4.83426,0.02
 01/06  04:00:00,117.706518981,0.0,0.0,0.0,43.513341876,52.539744,4.85426,0.0,4.83426,0.02
 01/06  05:00:00,119.809021521,0.0,0.0,0.0,43.513341876,52.539744,4.85426,0.0,4.83426,0.02
 01/06  06:00:00,119.460975063,0.0,0.0,0.0,43.513341876,52.539744,13.4505251876,0.0,4.83426,8.61626518765
 01/06  07:00:00,194.057891505,73.4588579576,0.0,0.0,43.513341876,53.238744,1219.44799484,1214.59373484,4.83426,0.02
 01/06  08:00:00,364.933597775,73.4588579576,0.0,0.0,220.879908,53.238744,1051.2161541,1028.88711967,4.83426,17.4947744253
 01/06  09:00:00,445.367284039,73.4588579576,0.00120799431992,0.0,220.879908,145.652643033,905.522290529,842.871042416,36.25695,26.3942981132
 01/06  10:00:00,445.423417623,73.4588579576,0.00160422919465,0.0,220.879908,145.652643033,881.803324932,810.047528882,36.25695,35.4988460497
 01/06  11:00:00,451.448993986,73.4588579576,0.00120475274581,0.0,220.879908,151.653867033,848.266414751,764.384708879,48.3426,35.5391058728
 01/06  12:00:00,452.444323641,73.4588579576,0.0,0.0,220.879908,151.653867033,758.868858615,674.87432924,48.3426,35.6519293743
 01/06  13:00:00,451.48656598,73.4588579576,0.0,0.0,220.879908,151.653867033,717.311196299,624.292448096,48.3426,44.6761482026
 01/06  14:00:00,445.201745657,73.4599021517,0.0,0.0,220.879908,145.652643033,664.029469434,595.117720667,24.1713,44.7404487671
 01/06  15:00:00,444.870873008,73.5380558717,0.0,0.0,220.879908,145.652643033,571.872671067,512.19058668,24.1713,35.5107843864
 01/06  16:00:00,437.024284946,73.6585123758,0.0,0.0,220.879908,137.835547516,471.577791388,431.176909897,4.83426,35.5666214911
 01/06  17:00:00,431.82627487,73.4588579576,0.0,0.0,220.879908,133.019064,385.980212904,354.650621802,4.83426,26.4953311025
 01/06  18:00:00,355.194847478,73.4588579576,0.0,0.0,220.879908,53.238744,537.871520934,497.716726236,4.83426,35.3205346978
 01/06  19:00:00,370.484084936,73.4588579576,0.0,0.0,220.879908,53.238744,597.765782495,566.353908293,4.83426,26.5776142021
 01/06  20:00:00,370.674077329,73.4588579576,0.0,0.0,220.879908,53.238744,589.909750123,576.399891788,4.83426,8.67559833455
 01/06  21:00:00,370.70697896,73.4588579576,0.0,0.0,220.879908,53.238744,616.649818679,603.1484057,4.83426,8.6671529788
 01/06  22:00:00,117.467607975,0.0,0.0,0.0,43.513341876,52.539744,13.5014631512,0.0,4.83426,8.66720315121
 01/06  23:00:00,117.556939752,0.0,0.0,0.0,43.513341876,52.539744,13.4695088284,0.0,4.83426,8.63524882837
 01/06  24:00:00,118.602549497,0.0,0.0,0.0,43.513341876,52.539744,4.85426,0.0,4.83426,0.02
 01/07  01:00:00,117.605731063,0.0,0.0,0.0,43.513341876,52.539744,13.4445497068,0.0,4.83426,8.61028970678
 01/07  02:00:00,117.611789138,0.0,0.0,0.0,43.513341876,52.539744,4.85426,0.0,4.83426,0.02
 01/07  03:00:00,117.607040121,0.0,0.0,0.0,43.513341876,52.539744,4.85426,0.0,4.83426,0.02
 01/07  04:00:00,117.599483397,0.0,0.0,0.0,43.513341876,52.539744,4.85426,0.0,4.83426,0.02
 01/07  05:00:00,118.021002294,0.0,0.0,0.0,43.513341876,52.539744,4.85426,0.0,4.83426,0.02
 01/07  06:00:00,117.980020771,0.0,0.0,0.0,43.513341876,52.539744,4.85426,0.0,4.83426,0.02
 01/07  07:00:00,117.99728237,0.0,0.0,0.0,43.513341876,52.539744,4.85426,0.0,4.83426,0.02
 01/07  08:00:00,111.890260787,0.0,0.0,0.0,43.513341876,52.539744,13.4445247444,0.0,4.83426,8.61026474436
 01/07  09:00:00,99.9249975867,0.0,0.0,0.0,43.513341876,52.539744,4.85426,0.0,4.83426,0.02
 01/07  10:00:00,99.9482028172,0.0,0.0,0.0,43.513341876,52.539744,4.85426,0.0,4.83426,0.02
 01/07  11:00:00,99.9448899145,0.0,0.0,0.0,43.513341876,52.539744,13.5355294472,0.0,4.83426,8.70126944723
 01/07  12:00:00,100.851652885,0.0,0.0,0.0,43.513341876,52.539744,13.4798006141,0.0,4.83426,8.6455406141
 01/07  13:00:00,99.9316265758,0.0,0.0,0.0,43.513341876,52.539744,13.4797277549,0.0,4.83426,8.64546775494
 01/07  14:00:00,100.018869283,0.0,0.0,0.0,43.513341876,52.539744,4.85426,0.0,4.83426,0.02
 01/07  15:00:00,100.052991625,0.0,0.0,0.0,43.513341876,52.539744,13.4737407185,0.0,4.83426,8.6394807185
 01/07  16:00:00,100.033332729,0.0,0.0,0.0,43.513341876,52.539744,4.85426,0.0,4.83426,0.02
 01/07  17:00:00,99.826931075,0.0,0.0,0.0,43.513341876,52.539744,13.4445809207,0.0,4.83426,8.61032092071
 01/07  18:00:00,102.799516848,0.0,0.0,0.0,43.513341876,52.539744,4.85426,0.0,4.83426,0.02
 01/07  19:00:00,117.728514617,0.0,0.0,0.0,43.513341876,52.539744,4.85426,0.0,4.83426,0.02
 01/07  20:00:00,118.152913292,0.0,0.0,0.0,43.513341876,52.539744,4.85426,0.0,4.83426,0.02
 01/07  21:00:00,118.119365949,0.0,0.0,0.0,43.513341876,52.539744,4.85426,0.0,4.83426,0.02
 01/07  22:00:00,117.916478322,0.0,0.0,0.0,43.513341876,52.539744,31.1339738766,0.0,4.83426,26.2997138766
 01/07  23:00:00,119.664038114,2.07662372353,0.0,0.0,43.513341876,52.539744,5.38720624894,0.53294624894,4.83426,0.02
 01/07  24:00:00,121.040734857,2.54027342401,0.0,0.0,43.513341876,52.539744,5.62110551773,0.766845517731,4.83426,0.02
 01/08  01:00:00,120.117338364,2.54027342401,0.0,0.0,43.513341876,52.539744,5.723141119,0.868881119,4.83426,0.02
 01/08  02:00:00,120.224828774,2.65455252769,0.0,0.0,43.513341876,52.539744,5.92961701343,1.07535701343,4.83426,0.02
 01/08  03:00:00,122.17431182,4.61105559778,0.0,0.0,43.513341876,52.539744,15.5643480348,2.11975540426,4.83426,8.61033263058
 01/08  04:00:00,121.851813809,4.30218637612,0.0,0.0,43.513341876,52.539744,7.68703100085,2.83277100085,4.83426,0.02
 01/08  05:00:00,122.824403179,4.8666147219,0.0,0.0,43.513341876,52.539744,10.4213448809,5.56708488092,4.83426,0.02
 01/08  06:00:00,122.470490088,4.55774550025,0.0,0.0,43.513341876,52.539744,12.2370880092,7.38282800925,4.83426,0.02
 01/08  07:00:00,127.873714696,9.9439119772,0.0,0.0,43.513341876,52.539744,20.1672173364,15.3129573364,4.83426,0.02
 01/08  08:00:00,120.335467522,8.53514993482,0.0,0.0,43.513341876,52.539744,19.622863267,14.768603267,4.83426,0.02
 01/08  09:00:00,104.902657329,4.99439428397,0.0,0.0,43.513341876,52.539744,25.2811518118,11.8305568092,4.83426,8.61633500264
 01/08  10:00:00,103.793690468,3.79106812787,0.0,0.0,43.513341876,52.539744,10.2008899937,5.34662999366,4.83426,0.02
 01/08  11:00:00,101.658252459,1.61624066592,0.0,0.0,43.513341876,52.539744,15.3777117613,1.84191130205,4.83426,8.70154045922
 01/08  12:00:00,100.952924449,0.0,0.0,0.0,43.513341876,52.539744,13.4801401425,0.0,4.83426,8.64588014249
 01/08  13:00:00,100.131549112,0.0,0.0,0.0,43.513341876,52.539744,13.4800739466,0.0,4.83426,8.64581394661
 01/08  14:00:00,100.26709067,0.0,0.0,0.0,43.513341876,52.539744,4.85426,0.0,4.83426,0.02
 01/08  15:00:00,100.391560656,0.0,0.0,0.0,43.513341876,52.539744,13.4741654213,0.0,4.83426,8.6399054213
 01/08  16:00:00,100.446582467,0.0,0.0,0.0,43.513341876,52.539744,4.85426,0.0,4.83426,0.02
 01/08  17:00:00,100.264839509,0.0,0.0,0.0,43.513341876,52.539744,13.4445031843,0.0,4.83426,8.61024318431
 01/08  18:00:00,103.207264078,0.0,0.0,0.0,43.513341876,52.539744,4.85426,0.0,4.83426,0.02
 01/08  19:00:00,118.058927097,0.0,0.0,0.0,43.513341876,52.539744,4.85426,0.0,4.83426,0.02
 01/08  20:00:00,118.482180002,0.0,0.0,0.0,43.513341876,52.539744,4.85426,0.0,4.83426,0.02
 01/08  21:00:00,118.361016212,0.0,0.0,0.0,43.513341876,52.539744,4.85426,0.0,4.83426,0.02
 01/08  22:00:00,118.082722767,0.0,0.0,0.0,43.513341876,52.539744,31.1357157067,0.0,4.83426,26.3014557067
 01/08  23:00:00,117.725142586,0.0,0.0,0.0,43.513341876,52.539744,4.85426,0.0,4.83426,0.02
 01/08  24:00:00,118.57486771,0.0,0.0,0.0,43.513341876,52.539744,4.85426,0.0,4.83426,0.02
 01/09  01:00:00,117.710836932,0.0,0.0,0.0,43.513341876,52.539744,4.85426,0.0,4.83426,0.02
 01/09  02:00:00,117.686096436,0.0,0.0,0.0,43.513341876,52.539744,4.85426,0.0,4.83426,0.02
 01/09  03:00:00,117.64799581,0.0,0.0,0.0,43.513341876,52.539744,13.4505433739,0.0,4.83426,8.61628337387
 01/09  04:00:00,117.633299659,0.0,0.0,0.0,43.513341876,52.539744,4.85426,0.0,4.83426,0.02
 01/09  05:00:00,118.046995671,0.0,0.0,0.0,43.513341876,52.539744,4.85426,0.0,4.83426,0.02
 01/09  06:00:00,118.011519909,0.0,0.0,0.0,43.513341876,52.539744,4.85426,0.0,4.83426,0.02
 01/09  07:00:00,193.23590946,73.4588579576,0.000991608346174,0.0,43.513341876,53.238744,1303.24179156,1289.79251314,4.83426,8.61501841751
 01/09  08:00:00,364.721872478,73.4588579576,0.0,0.0,220.879908,53.238744,1009.34373408,987.01187379,4.83426,17.4976002879
 01/09  09:00:00,444.590780297,73.4588579576,0.00268257637349,0.0,220.879908,145.652643033,625.34483429,562.692779197,36.25695,26.3951050926
 01/09  10:00:00,452.35984671,73.4588579576,7.74350630105,0.0,220.879908,145.652643033,383.602793534,311.839057547,36.25695,35.5067859863
 01/09  11:00:00,522.083093938,73.4935752706,70.4194496999,0.0,220.879908,151.653867033,222.165227686,138.277838553,48.3426,35.5447891333
 01/09  12:00:00,585.909668114,74.1382794847,131.989791947,0.0,220.879908,151.653867033,120.395646726,36.3922578153,48.3426,35.6607889105
 01/09  13:00:00,633.731979061,74.8024073662,179.724605181,0.0,220.879908,151.653867033,95.653928713,2.62920232185,48.3426,44.6821263912
 01/09  14:00:00,674.134144822,75.4455679507,225.187990927,0.0,220.879908,145.652643033,68.9228794521,0.00492429722468,24.1713,44.7466551549
 01/09  15:00:00,749.449489001,76.2129467245,299.286940758,0.0,220.879908,145.652643033,59.6871581,0.0,24.1713,35.5158581
 01/09  16:00:00,799.757853741,76.846220435,356.567775592,0.0,220.879908,137.835547516,40.4069210337,0.0,4.83426,35.5726610337
 01/09  17:00:00,763.936802798,74.9335955094,327.879502319,0.0,220.879908,133.019064,31.3456984785,0.0123266533718,4.83426,26.4991118251